KI0MQ Weather Reports


time (UTC)temp
C
wind
direction
speed
KPH
gust
KPH
rain 1hr
cm
rain 24hr
cm
rain mn
cm
humidity
%
barometer
mb
20260507211005 21 322 4.8 16.1 0.00 0.00 0.00 30 1008.0
20260507210503 22 333 4.8 16.1 0.00 0.00 0.00 30 1008.1
20260507210008 22 318 3.2 9.7 0.00 0.00 0.00 30 1008.2
20260507205504 22 305 3.2 9.7 0.00 0.00 0.00 31 1008.1
20260507204507 22 235 3.2 8.0 0.00 0.00 0.00 34 1008.2
20260507204004 22 271 3.2 12.9 0.00 0.00 0.00 32 1008.3
20260507203504 22 308 4.8 14.5 0.00 0.00 0.00 32 1008.4
20260507203008 22 328 6.4 16.1 0.00 0.00 0.00 29 1008.4
20260507202504 22 341 4.8 16.1 0.00 0.00 0.00 29 1008.5
20260507202004 22 327 4.8 12.9 0.00 0.00 0.00 29 1008.5
20260507200503 22 270 3.2 20.9 0.00 0.00 0.00 29 1008.5
20260507200008 22 273 3.2 17.7 0.00 0.00 0.00 27 1008.6
20260507195003 22 331 3.2 11.3 0.00 0.00 0.00 31 1008.4
20260507194508 23 316 3.2 16.1 0.00 0.00 0.00 31 1008.5
20260507193503 23 247 1.6 11.3 0.00 0.00 0.00 35 1008.4
20260507193008 23 266 3.2 11.3 0.00 0.00 0.00 35 1008.5
20260507191508 22 290 3.2 12.9 0.00 0.00 0.00 37 1008.6
20260507185503 23 261 1.6 8.0 0.00 0.00 0.00 37 1008.4
20260507185004 22 268 3.2 11.3 0.00 0.00 0.00 39 1008.6
20260507183504 22 223 3.2 9.7 0.00 0.00 0.00 38 1008.7
20260507183008 21 246 3.2 9.7 0.00 0.00 0.00 40 1008.8
20260507182503 21 260 3.2 9.7 0.00 0.00 0.00 39 1008.9
20260507182003 21 254 3.2 9.7 0.00 0.00 0.00 40 1008.9
20260507181508 21 258 3.2 9.7 0.00 0.00 0.00 40 1009.1
20260507180503 21 236 3.2 11.3 0.00 0.00 0.00 38 1009.1
20260507180008 21 251 3.2 12.9 0.00 0.00 0.00 39 1009.1
20260507175503 21 241 3.2 12.9 0.00 0.00 0.00 42 1009.1
20260507175004 21 253 3.2 11.3 0.00 0.00 0.00 43 1009.2
20260507174508 20 257 3.2 9.7 0.00 0.00 0.00 42 1009.3
20260507174003 20 237 3.2 8.0 0.00 0.00 0.00 39 1009.4
20260507173504 20 258 3.2 9.7 0.00 0.00 0.00 40 1009.5
20260507173007 20 258 3.2 9.7 0.00 0.00 0.00 40 1009.6
20260507172504 20 245 3.2 9.7 0.00 0.00 0.00 41 1009.5
20260507172003 20 241 3.2 8.0 0.00 0.00 0.00 40 1009.7
20260507171508 20 233 1.6 6.4 0.00 0.00 0.00 42 1009.7
20260507170504 19 246 1.6 8.0 0.00 0.00 0.00 41 1009.8
20260507165503 18 244 1.6 6.4 0.00 0.00 0.00 43 1010.0
20260507164003 18 231 3.2 6.4 0.00 0.00 0.00 45 1010.2
20260507163503 18 213 3.2 8.0 0.00 0.00 0.00 52 1010.2
20260507163007 17 213 3.2 9.7 0.00 0.00 0.00 48 1010.2
20260507162503 17 203 4.8 11.3 0.00 0.00 0.00 47 1010.2
20260507162003 17 194 4.8 12.9 0.00 0.00 0.00 50 1010.3
20260507161509 17 205 3.2 12.9 0.00 0.00 0.00 51 1010.3
20260507161004 17 223 3.2 6.4 0.00 0.00 0.00 51 1010.4
20260507160008 16 203 3.2 12.9 0.00 0.00 0.00 53 1010.5
20260507155504 16 216 3.2 8.0 0.00 0.00 0.00 53 1010.6
20260507155004 16 236 3.2 8.0 0.00 0.00 0.00 55 1010.6
20260507154507 16 230 3.2 8.0 0.00 0.00 0.00 54 1010.7
20260507153504 15 225 3.2 9.7 0.00 0.00 0.00 56 1010.8
20260507152503 15 213 3.2 9.7 0.00 0.00 0.00 60 1010.8
20260507152003 15 206 3.2 9.7 0.00 0.00 0.00 61 1011.0
20260507151508 15 214 3.2 8.0 0.00 0.00 0.00 62 1011.0
20260507151003 14 223 1.6 6.4 0.00 0.00 0.00 62 1011.1
20260507150008 13 235 3.2 6.4 0.00 0.00 0.00 63 1011.1
20260507145503 13 238 3.2 8.0 0.00 0.00 0.00 65 1011.2
20260507145003 13 240 3.2 8.0 0.00 0.00 0.00 65 1011.2
20260507144508 13 237 3.2 8.0 0.00 0.00 0.00 65 1011.3
20260507144004 13 235 1.6 6.4 0.00 0.00 0.00 66 1011.4
20260507143503 12 237 1.6 6.4 0.00 0.00 0.00 67 1011.4
20260507143008 12 232 3.2 6.4 0.00 0.00 0.00 67 1011.4
20260507142504 12 231 1.6 4.8 0.00 0.00 0.00 68 1011.5
20260507141508 12 245 1.6 4.8 0.00 0.00 0.00 71 1011.5
20260507140009 11 243 1.6 6.4 0.00 0.00 0.00 72 1011.6
20260507135503 11 247 3.2 6.4 0.00 0.00 0.00 72 1011.6
20260507135005 11 236 3.2 8.0 0.00 0.00 0.00 74 1011.6
20260507134003 10 240 1.6 6.4 0.00 0.00 0.00 74 1011.6
20260507133008 10 241 3.2 8.0 0.00 0.00 0.00 75 1011.6
20260507132503 10 237 1.6 6.4 0.00 0.00 0.00 76 1011.7
20260507131508 9 239 3.2 8.0 0.00 0.00 0.00 77 1011.7
20260507131005 9 239 3.2 6.4 0.00 0.00 0.00 78 1011.7
20260507130503 8 234 3.2 8.0 0.00 0.00 0.00 78 1011.8
20260507130009 8 232 3.2 8.0 0.00 0.00 0.00 78 1012.0
20260507125503 8 237 1.6 4.8 0.00 0.00 0.00 79 1012.1
20260507125003 8 237 3.2 4.8 0.00 0.00 0.00 80 1012.1
20260507124509 8 239 3.2 8.0 0.00 0.00 0.00 80 1012.0
20260507123504 7 243 3.2 6.4 0.00 0.00 0.00 80 1012.0
20260507123009 7 245 1.6 4.8 0.00 0.00 0.00 81 1012.0
20260507122503 7 243 1.6 4.8 0.00 0.00 0.00 81 1012.0
20260507122003 7 240 1.6 4.8 0.00 0.00 0.00 81 1012.0
20260507121508 7 239 1.6 6.4 0.00 0.00 0.00 82 1012.0
20260507121004 7 242 1.6 6.4 0.00 0.00 0.00 82 1012.0
20260507120504 7 237 1.6 4.8 0.00 0.00 0.00 82 1012.0
20260507120008 7 231 1.6 4.8 0.00 0.00 0.00 82 1012.0
20260507115504 7 242 1.6 3.2 0.00 0.00 0.00 82 1012.0
20260507115004 7 249 1.6 3.2 0.00 0.00 0.00 81 1012.0
20260507113503 7 241 1.6 3.2 0.00 0.00 0.00 81 1012.1
20260507113008 7 239 1.6 3.2 0.00 0.00 0.00 81 1012.0
20260507112504 7 234 1.6 3.2 0.00 0.00 0.00 81 1012.0
20260507112004 7 234 1.6 3.2 0.00 0.00 0.00 80 1012.0
20260507111003 7 232 0.0 1.6 0.00 0.00 0.00 80 1012.0
20260507110503 7 237 0.0 3.2 0.00 0.00 0.00 80 1012.0
20260507110008 7 240 0.0 3.2 0.00 0.00 0.00 80 1012.1
20260507105003 7 235 1.6 3.2 0.00 0.00 0.00 80 1012.0
20260507104508 7 235 1.6 3.2 0.00 0.00 0.00 79 1011.9
20260507104003 7 237 1.6 3.2 0.00 0.00 0.00 79 1011.9
20260507103503 7 238 1.6 3.2 0.00 0.00 0.00 79 1012.0
20260507103009 7 242 1.6 3.2 0.00 0.00 0.00 79 1011.9
20260507102003 7 250 0.0 3.2 0.00 0.00 0.00 79 1012.0
20260507101509 7 240 0.0 3.2 0.00 0.00 0.00 79 1012.0
20260507101004 7 246 1.6 3.2 0.00 0.00 0.00 78 1012.0
20260507100504 7 247 1.6 3.2 0.00 0.00 0.00 78 1012.0
20260507095003 7 229 1.6 3.2 0.00 0.00 0.00 78 1012.2
20260507094508 7 231 1.6 3.2 0.00 0.00 0.00 78 1012.2
20260507094005 7 236 0.0 3.2 0.00 0.00 0.00 78 1012.3
20260507092503 7 238 0.0 1.6 0.00 0.00 0.00 77 1012.3
20260507092004 7 239 0.0 1.6 0.00 0.00 0.00 77 1012.4
20260507091508 7 247 0.0 1.6 0.00 0.00 0.00 77 1012.4
20260507090503 7 238 0.0 1.6 0.00 0.00 0.00 76 1012.5
20260507090008 7 249 0.0 1.6 0.00 0.00 0.00 76 1012.6
20260507084508 7 0 0.0 0.0 0.00 0.00 0.00 75 1012.9
20260507084003 7 0 0.0 0.0 0.00 0.00 0.00 75 1012.9
20260507082503 7 257 0.0 1.6 0.00 0.00 0.00 73 1013.1
20260507082003 7 0 0.0 0.0 0.00 0.00 0.00 73 1013.2
20260507081508 7 0 0.0 0.0 0.00 0.00 0.00 73 1013.2
20260507081005 7 0 0.0 0.0 0.00 0.00 0.00 72 1013.3
20260507080503 7 257 0.0 1.6 0.00 0.00 0.00 72 1013.3
20260507075003 7 0 0.0 0.0 0.00 0.00 0.00 71 1013.5
20260507074003 7 0 0.0 0.0 0.00 0.00 0.00 72 1013.6
20260507073504 6 0 0.0 0.0 0.00 0.00 0.00 71 1013.6
20260507073008 6 0 0.0 0.0 0.00 0.00 0.00 72 1013.6
20260507072504 6 0 0.0 0.0 0.00 0.00 0.00 73 1013.7
20260507072003 6 0 0.0 0.0 0.00 0.00 0.00 72 1013.8
20260507071508 6 0 0.0 0.0 0.00 0.00 0.00 72 1013.9
20260507071003 6 0 0.0 0.0 0.00 0.00 0.00 72 1013.9
20260507070504 6 0 0.0 0.0 0.00 0.00 0.00 72 1013.9
20260507070011 6 0 0.0 0.0 0.00 0.00 0.00 73 1014.0
20260507065504 5 0 0.0 0.0 0.00 0.00 0.00 73 1014.1
20260507065004 5 0 0.0 0.0 0.00 0.00 0.00 74 1014.2
20260507064508 5 0 0.0 0.0 0.00 0.00 0.00 74 1014.3
20260507064003 5 0 0.0 0.0 0.00 0.00 0.00 75 1014.4
20260507063504 5 0 0.0 0.0 0.00 0.00 0.00 76 1014.4
20260507062504 5 0 0.0 0.0 0.00 0.00 0.00 76 1014.4
20260507062003 5 0 0.0 0.0 0.00 0.00 0.00 74 1014.4
20260507061508 5 0 0.0 0.0 0.00 0.00 0.00 74 1014.5
20260507061003 5 0 0.0 0.0 0.00 0.00 0.00 74 1014.4
20260507060504 5 0 0.0 0.0 0.00 0.00 0.00 74 1014.6
20260507060009 5 0 0.0 0.0 0.00 0.00 0.00 74 1014.6
20260507055503 5 0 0.0 0.0 0.00 0.00 0.00 74 1014.6
20260507055003 6 0 0.0 0.0 0.00 0.00 0.00 73 1014.6
20260507054508 6 0 0.0 0.0 0.00 0.00 0.00 74 1014.6
20260507054003 6 0 0.0 0.0 0.00 0.00 0.00 75 1014.7
20260507053503 6 0 0.0 0.0 0.00 0.00 0.00 75 1014.7
20260507053009 6 0 0.0 0.0 0.00 0.00 0.00 74 1014.7
20260507052504 6 0 0.0 0.0 0.00 0.00 0.00 74 1014.7
20260507052003 6 0 0.0 0.0 0.00 0.00 0.00 73 1014.6
20260507050504 6 0 0.0 0.0 0.00 0.00 0.00 74 1014.8
20260507050009 5 0 0.0 0.0 0.00 0.00 0.00 73 1014.8
20260507045503 5 0 0.0 0.0 0.00 0.00 0.00 73 1014.8
20260507044508 5 0 0.0 0.0 0.00 0.00 0.00 70 1014.7
20260507044003 5 0 0.0 0.0 0.00 0.00 0.00 70 1014.7
20260507043504 5 0 0.0 0.0 0.00 0.00 0.00 71 1014.8
20260507043009 5 0 0.0 0.0 0.00 0.00 0.00 70 1014.9
20260507042503 6 0 0.0 0.0 0.00 0.00 0.00 69 1015.0
20260507042003 6 0 0.0 0.0 0.00 0.00 0.00 68 1015.0
20260507041508 6 0 0.0 0.0 0.00 0.00 0.00 69 1015.0
20260507041004 6 0 0.0 0.0 0.00 0.00 0.00 69 1015.1
20260507040503 6 0 0.0 0.0 0.00 0.00 0.00 68 1015.1
20260507040008 6 0 0.0 0.0 0.00 0.00 0.00 67 1015.2
20260507035503 6 0 0.0 0.0 0.00 0.00 0.00 67 1015.2
20260507035005 6 0 0.0 0.0 0.00 0.00 0.00 66 1015.2
20260507034003 6 0 0.0 0.0 0.00 0.00 0.00 65 1015.3
20260507033504 6 0 0.0 0.0 0.00 0.00 0.00 65 1015.3
20260507033009 6 0 0.0 0.0 0.00 0.00 0.00 65 1015.3
20260507032003 7 0 0.0 0.0 0.00 0.00 0.00 62 1015.4
20260507031508 7 0 0.0 0.0 0.00 0.00 0.00 60 1015.3
20260507031003 7 0 0.0 0.0 0.00 0.00 0.00 60 1015.3
20260507030008 7 0 0.0 0.0 0.00 0.00 0.00 59 1015.3
20260507025503 8 0 0.0 0.0 0.00 0.00 0.00 57 1015.3
20260507025004 8 0 0.0 0.0 0.00 0.00 0.00 58 1015.3
20260507024508 8 0 0.0 0.0 0.00 0.00 0.00 58 1015.3
20260507024003 8 0 0.0 0.0 0.00 0.00 0.00 57 1015.3
20260507023503 8 0 0.0 0.0 0.00 0.00 0.00 55 1015.2
20260507023008 8 0 0.0 0.0 0.00 0.00 0.00 55 1015.1
20260507022504 9 0 0.0 0.0 0.00 0.00 0.00 54 1015.1
20260507022003 9 0 0.0 0.0 0.00 0.00 0.00 53 1015.1
20260507021003 10 0 0.0 0.0 0.00 0.00 0.00 51 1015.0
20260507020503 10 0 0.0 0.0 0.00 0.00 0.00 50 1015.0
20260507020009 10 0 0.0 0.0 0.00 0.00 0.00 49 1015.0
20260507015503 10 0 0.0 0.0 0.00 0.00 0.00 48 1015.0
20260507015004 11 0 0.0 0.0 0.00 0.00 0.00 47 1015.0
20260507014508 11 0 0.0 0.0 0.00 0.00 0.00 45 1014.9
20260507012503 12 0 0.0 0.0 0.00 0.00 0.00 40 1014.9
20260507012004 13 0 0.0 0.0 0.00 0.00 0.00 40 1015.0
20260507011003 13 260 0.0 1.6 0.00 0.00 0.00 36 1015.0
20260507010503 14 260 0.0 1.6 0.00 0.00 0.00 36 1014.9
20260507005003 15 260 0.0 3.2 0.00 0.00 0.00 35 1015.0
20260507004003 15 283 0.0 4.8 0.00 0.00 0.00 32 1015.0
20260507003503 15 303 0.0 4.8 0.00 0.00 0.00 33 1015.0
20260507003009 16 330 0.0 4.8 0.00 0.00 0.00 31 1015.1
20260507002503 15 320 1.6 4.8 0.00 0.00 0.00 31 1015.2
20260507002003 15 310 1.6 6.4 0.00 0.00 0.00 32 1015.2
20260507001509 15 298 1.6 6.4 0.00 0.00 0.00 32 1015.2
20260507001004 15 295 1.6 4.8 0.00 0.00 0.00 31 1015.2
20260507000505 15 336 1.6 6.4 0.00 0.00 0.00 31 1015.2
20260507000009 15 339 1.6 6.4 0.00 0.00 0.00 30 1015.3
20260506235003 16 333 3.2 8.0 0.00 0.00 0.00 30 1015.4
20260506234003 16 339 3.2 11.3 0.00 0.00 0.00 30 1015.5
20260506233503 16 341 3.2 9.7 0.00 0.00 0.00 32 1015.6
20260506232504 16 311 3.2 11.3 0.00 0.00 0.00 31 1015.5
20260506231508 16 270 1.6 4.8 0.00 0.00 0.00 34 1015.5
20260506231003 16 339 1.6 6.4 0.00 0.00 0.00 33 1015.6
20260506230504 16 315 3.2 12.9 0.00 0.00 0.00 31 1015.7
20260506230008 16 306 3.2 12.9 0.00 0.00 0.00 30 1015.7
20260506225504 16 310 1.6 11.3 0.00 0.00 0.00 31 1015.7
20260506225003 16 18 0.0 8.0 0.00 0.00 0.00 33 1015.7
20260506224508 15 332 3.2 11.3 0.00 0.00 0.00 33 1015.6
20260506224003 15 336 3.2 12.9 0.00 0.00 0.00 32 1015.7
20260506223503 15 341 1.6 12.9 0.00 0.00 0.00 32 1015.9
20260506223009 15 341 1.6 8.0 0.00 0.00 0.00 32 1015.9
20260506222503 15 319 4.8 14.5 0.00 0.00 0.00 32 1015.9
20260506222003 15 328 6.4 14.5 0.00 0.00 0.00 32 1015.9
20260506221508 15 352 3.2 14.5 0.00 0.00 0.00 31 1016.1
20260506220505 15 335 1.6 9.7 0.00 0.00 0.00 33 1016.1
20260506220008 15 332 3.2 11.3 0.00 0.00 0.00 32 1016.1
20260506215503 15 344 3.2 11.3 0.00 0.00 0.00 33 1016.2
20260506215003 15 359 3.2 9.7 0.00 0.00 0.00 34 1016.1
20260506214509 15 358 3.2 16.1 0.00 0.00 0.00 31 1016.2
20260506213503 15 319 3.2 14.5 0.00 0.00 0.00 32 1016.3
20260506213008 15 324 4.8 17.7 0.00 0.00 0.00 31 1016.4
20260506212504 15 327 4.8 17.7 0.00 0.00 0.00 31 1016.3
20260506212003 16 326 3.2 14.5 0.00 0.00 0.00 32 1016.5